Temp
74 75 75 75 75 75 75 75 75 75 75 76 76 74 73 70 67 67 71 70 77 77 76 76 77 76 76 76 76 76 76 76 75
70 71 73 74 75 75 75 75 75 74 75 76 75 73 71 67 65 65 67 69 77 77 76 76 76 76 76 76 76 76 76 76 75
67 68 69 70 72 74 74 75 74 74 74 75 74 72 69 68 66 66 66 72 77 77 76 76 76 76 76 76 75 76 75 75 75
63 63 65 66 68 69 71 73 74 74 73 74 73 71 69 66 67 69 66 72 77 77 76 75 75 76 76 75 75 75 75 75 74
59 60 61 63 64 65 67 68 69 70 72 72 71 70 69 66 66 67 67 73 77 77 76 76 75 75 75 75 75 74 74 75 74
54 56 58 60 61 62 64 64 65 65 66 68 68 67 66 65 65 66 70 73 77 77 76 76 75 75 74 75 74 74 74 74 74
53 53 55 56 57 58 60 61 61 60 61 66 66 65 65 64 65 66 70 74 76 77 75 75 75 75 74 74 74 74 74 74 74
51 50 51 52 53 53 55 54 55 56 60 61 64 65 64 63 64 67 70 72 76 78 76 75 75 75 74 73 74 74 74 74 73
46 47 48 49 50 49 51 52 52 54 57 57 60 63 65 66 64 64 67 70 74 76 77 76 75 74 75 75 73 74 73 74 73
43 43 44 46 47 47 48 48 50 52 53 55 57 59 62 65 66 65 65 68 71 74 77 77 76 76 75 75 74 73 73 73 73
40 40 41 42 43 45 46 46 47 48 50 52 54 56 59 61 65 67 66 67 69 72 75 77 76 76 76 75 74 73 73 73 73
38 38 38 39 42 42 43 43 45 45 48 47 50 52 51 56 60 65 67 67 66 68 72 75 76 75 76 76 75 73 73 72 72
37 37 37 38 39 39 40 40 40 41 41 41 45 47 50 53 56 61 66 66 68 67 68 70 74 75 75 76 75 74 72 72 72
36 36 36 37 37 37 37 37 38 38 38 41 44 46 46 48 56 58 63 66 68 67 67 66 68 71 74 76 76 75 73 72 72
35 35 35 36 35 35 35 35 36 36 35 40 43 44 44 47 51 59 63 63 65 67 65 66 66 65 70 73 75 75 74 72 71
34 33 33 34 33 32 34 33 33 34 35 35 38 40 47 46 48 54 57 58 61 64 66 67 67 68 66 69 72 74 74 73 72
35 32 32 32 31 31 31 31 30 32 34 30 32 34 40 40 43 50 52 52 54 55 57 61 65 66 67 66 67 71 73 74 73
32 32 31 31 31 30 30 30 29 27 30 32 33 28 28 31 41 44 46 48 47 50 51 55 57 59 65 65 65 64 69 72 74
31 31 31 30 30 29 30 32 28 28 27 29 34 32 31 28 28 38 41 43 44 48 47 49 51 53 56 61 62 62 64 70 73
29 30 29 29 30 29 28 28 27 28 27 27 28 29 30 31 30 27 32 37 41 44 47 46 50 55 53 54 60 61 64 67 71
MSLP
1020.01 1019.76 1019.65 1019.63 1019.66 1019.69 1019.59 1019.62 1019.66 1019.60 1019.63 1019.67 1019.75 1019.91 1019.91 1019.97 1020.09 1020.06 1019.90 1019.82 1019.69 1019.75 1019.88 1020.10 1020.12 1020.20 1020.25 1020.48 1020.55 1020.71 1020.86 1020.96 1021.10
1020.99 1020.74 1020.22 1019.95 1019.87 1019.91 1019.92 1019.95 1019.92 1019.90 1019.85 1019.86 1019.87 1020.06 1020.11 1020.17 1020.34 1020.32 1020.21 1020.07 1019.89 1019.96 1020.05 1020.15 1020.24 1020.36 1020.17 1020.61 1020.79 1020.89 1021.01 1021.11 1021.27
1021.75 1021.54 1021.22 1020.79 1020.46 1020.27 1020.17 1020.15 1020.13 1020.10 1020.02 1020.02 1020.03 1020.12 1020.21 1020.27 1020.38 1020.43 1020.38 1020.11 1019.94 1020.04 1020.25 1020.28 1020.36 1020.44 1020.57 1020.59 1020.83 1020.98 1021.13 1021.29 1021.46
1022.62 1022.47 1022.09 1021.67 1021.30 1021.11 1020.85 1020.56 1020.42 1020.28 1020.19 1020.12 1020.16 1020.23 1020.30 1020.38 1020.45 1020.35 1020.42 1020.30 1020.07 1020.01 1020.20 1020.37 1020.46 1020.52 1020.63 1020.82 1020.88 1021.15 1021.29 1021.38 1021.49
1023.45 1023.23 1023.13 1022.64 1022.16 1021.90 1021.58 1021.36 1021.02 1020.76 1020.46 1020.40 1020.39 1020.40 1020.50 1020.58 1020.58 1020.52 1020.46 1020.26 1020.18 1020.14 1020.19 1020.31 1020.39 1020.56 1020.72 1020.89 1020.98 1021.11 1021.44 1021.55 1021.59
1024.58 1024.31 1023.95 1023.46 1023.04 1022.65 1022.36 1022.10 1021.83 1021.38 1021.01 1020.90 1020.77 1020.75 1020.76 1020.70 1020.63 1020.59 1020.44 1020.31 1020.13 1020.12 1020.23 1020.32 1020.38 1020.49 1020.72 1020.85 1021.02 1021.06 1021.35 1021.58 1021.76
1025.29 1024.95 1024.60 1024.31 1023.93 1023.62 1023.26 1022.91 1022.63 1022.27 1021.86 1021.33 1021.07 1021.00 1020.97 1020.94 1020.80 1020.62 1020.47 1020.30 1020.09 1020.07 1020.09 1020.18 1020.28 1020.47 1020.63 1020.76 1020.89 1020.95 1020.84 1021.41 1021.81
1025.95 1025.76 1025.43 1025.23 1024.87 1024.56 1024.18 1023.79 1023.66 1023.36 1022.73 1022.16 1021.53 1021.10 1020.94 1020.88 1020.82 1020.55 1020.29 1020.18 1019.96 1019.76 1019.90 1019.92 1020.01 1020.23 1020.53 1020.63 1020.69 1020.86 1020.95 1020.97 1021.18
1027.45 1027.06 1026.81 1026.45 1026.03 1025.73 1025.42 1024.92 1024.62 1024.21 1023.63 1023.11 1022.21 1021.55 1020.88 1020.64 1020.52 1020.42 1020.16 1019.85 1019.70 1019.62 1019.71 1019.92 1019.86 1019.83 1020.04 1020.39 1020.56 1020.65 1020.88 1020.99 1021.14
1028.56 1028.33 1027.93 1027.60 1027.16 1026.61 1026.14 1025.85 1025.34 1024.72 1024.23 1023.64 1022.99 1022.24 1021.46 1020.75 1020.39 1020.12 1019.92 1019.61 1019.36 1019.35 1019.49 1019.61 1019.69 1019.66 1019.74 1020.01 1020.28 1020.52 1020.74 1020.88 1021.09
1029.37 1029.13 1028.76 1028.53 1028.16 1027.71 1027.27 1026.93 1026.14 1025.56 1024.86 1024.09 1023.47 1022.80 1022.01 1021.35 1020.46 1019.95 1019.64 1019.37 1019.12 1019.04 1019.08 1019.17 1019.32 1019.47 1019.49 1019.64 1019.86 1020.14 1020.49 1020.65 1020.91
1030.10 1029.98 1029.66 1029.39 1028.87 1028.53 1028.00 1027.51 1026.88 1026.22 1025.43 1024.86 1023.89 1023.00 1022.41 1021.68 1020.90 1020.01 1019.44 1019.09 1018.85 1018.64 1018.66 1018.66 1018.80 1019.04 1019.15 1019.28 1019.49 1019.82 1020.12 1020.45 1020.67
1030.66 1030.47 1030.30 1029.94 1029.51 1029.19 1028.72 1028.18 1027.60 1027.04 1026.45 1025.53 1024.36 1023.45 1022.57 1021.59 1020.93 1020.12 1019.24 1018.88 1018.61 1018.46 1018.16 1018.40 1018.44 1018.48 1018.73 1018.79 1019.10 1019.36 1019.58 1019.90 1020.22
1031.30 1031.19 1030.99 1030.47 1030.05 1029.77 1029.39 1028.89 1028.52 1027.82 1027.07 1025.94 1024.75 1023.61 1022.65 1021.91 1020.93 1020.16 1019.32 1018.85 1018.42 1018.13 1017.96 1017.75 1017.89 1018.07 1018.17 1018.34 1018.41 1018.74 1019.05 1019.41 1019.73
1031.75 1031.60 1031.41 1031.06 1030.83 1030.58 1030.14 1029.66 1029.12 1028.53 1027.88 1026.40 1024.99 1023.77 1022.73 1021.94 1021.05 1020.00 1019.22 1018.90 1018.60 1018.19 1017.84 1017.68 1017.56 1017.61 1017.61 1017.80 1018.02 1018.13 1018.52 1018.82 1019.20
1032.42 1032.34 1032.09 1031.81 1031.57 1031.31 1030.75 1030.34 1029.58 1028.90 1028.29 1026.74 1024.96 1023.71 1022.61 1022.04 1021.74 1020.92 1020.31 1019.78 1019.35 1018.47 1017.94 1017.63 1017.39 1017.15 1017.12 1017.24 1017.37 1017.50 1017.77 1018.17 1018.47
1032.52 1032.63 1032.54 1032.31 1032.04 1031.82 1031.55 1031.08 1030.57 1030.05 1029.51 1028.84 1027.50 1025.45 1023.35 1022.70 1022.23 1021.80 1021.60 1021.29 1020.71 1020.02 1019.43 1018.45 1017.39 1016.93 1016.79 1016.59 1016.81 1016.78 1017.05 1017.40 1017.70
1033.01 1032.83 1032.64 1032.44 1032.31 1032.19 1032.02 1031.80 1031.59 1031.21 1030.49 1030.08 1029.60 1028.56 1027.29 1025.84 1023.17 1022.53 1022.38 1022.10 1021.72 1020.99 1020.46 1019.54 1018.80 1018.19 1016.83 1016.43 1016.20 1016.29 1016.31 1016.49 1016.79
1033.38 1033.21 1033.09 1032.92 1032.67 1032.50 1032.20 1031.80 1031.93 1031.65 1031.24 1030.61 1030.32 1030.47 1029.90 1028.39 1025.36 1023.71 1023.19 1022.67 1022.37 1021.65 1021.14 1020.47 1019.84 1019.27 1018.39 1017.19 1016.04 1015.66 1015.86 1015.54 1015.86
1033.73 1033.51 1033.27 1033.06 1032.79 1032.63 1032.44 1032.21 1031.98 1031.78 1031.59 1031.30 1030.93 1030.50 1029.88 1029.00 1028.24 1025.63 1024.10 1023.35 1023.21 1022.70 1021.52 1021.40 1020.32 1019.34 1018.96 1018.02 1016.92 1015.29 1014.91 1015.05 1014.94
Wind_Speed
20 15 9 8 8 7 7 7 5 5 5 6 7 9 9 6 3 3 5 4 8 9 8 9 12 12 13 11 12 12 12 11 11
23 23 21 15 9 7 7 5 5 5 6 3 5 8 7 3 3 1 2 2 8 7 7 9 11 11 16 11 11 12 11 11 10
24 24 24 22 21 18 9 7 5 4 6 7 4 5 6 4 3 1 1 4 7 7 6 6 10 11 10 13 12 11 12 13 10
26 25 25 24 22 21 22 16 10 7 8 5 2 3 4 3 1 2 2 5 6 8 7 6 8 11 11 11 12 10 10 13 12
25 26 25 25 23 23 22 21 20 20 9 11 7 2 3 2 2 2 3 7 7 7 8 7 9 11 12 11 11 11 10 12 14
16 22 25 26 25 24 23 23 22 21 17 14 11 7 2 2 2 2 7 9 10 9 9 9 9 11 12 13 12 13 14 11 11
13 17 24 24 26 24 24 24 22 18 9 7 9 3 4 3 4 3 8 12 13 10 11 11 11 12 13 15 14 15 18 14 9
10 8 9 10 18 11 14 12 10 13 10 9 8 7 4 3 3 5 9 12 17 14 11 14 14 14 15 16 16 15 14 17 16
10 9 11 10 9 12 10 8 11 11 12 12 12 11 6 4 3 4 11 13 16 19 12 13 15 16 15 17 17 15 15 15 15
8 8 9 10 10 11 11 11 10 11 11 10 11 12 12 10 5 3 10 13 14 16 16 15 16 15 17 19 17 15 15 14 14
8 8 9 9 9 9 9 10 10 10 10 11 11 11 11 12 11 6 5 11 13 16 19 18 18 18 18 20 19 17 18 16 16
8 7 8 8 8 10 9 10 9 9 10 12 11 10 10 10 11 10 7 6 11 13 17 21 18 19 20 21 21 20 18 18 17
8 7 8 8 7 8 8 9 9 9 10 10 10 9 10 11 11 10 9 6 6 7 13 17 17 19 21 23 22 21 19 19 19
7 7 7 8 7 8 9 8 9 8 11 12 10 10 10 11 9 11 11 9 8 5 9 12 16 18 22 24 23 23 21 21 20
8 7 9 8 7 8 8 10 9 6 10 10 10 10 9 7 6 9 8 7 8 8 6 6 7 15 18 24 25 24 23 22 22
8 7 8 8 8 8 10 9 10 7 12 7 8 4 7 5 7 9 10 14 14 11 9 6 6 7 14 20 25 25 26 24 24
9 7 6 6 5 8 9 10 7 4 9 6 5 7 6 8 12 8 10 13 10 12 15 16 10 9 8 10 17 24 27 27 28
8 8 7 7 6 6 6 6 8 7 4 10 5 6 5 13 4 11 9 14 10 11 13 15 14 17 10 10 12 17 25 27 29
7 6 6 5 4 6 6 7 4 4 6 4 7 3 6 4 9 5 13 9 15 13 13 11 14 16 14 18 15 15 21 27 30
5 6 6 5 4 4 5 5 5 3 3 4 5 5 5 9 7 12 12 12 10 12 10 14 13 12 15 13 18 19 21 26 29
Wind_Direction
32 30 55 59 52 56 66 68 55 41 66 105 92 72 54 68 79 74 95 92 106 98 123 129 122 119 106 106 108 110 106 99 84
36 28 31 26 44 43 47 59 59 10 358 37 105 82 68 79 106 72 112 141 122 110 101 134 138 135 125 118 119 120 114 115 104
36 32 31 28 29 21 25 35 33 13 354 344 111 91 67 70 147 146 192 214 146 132 118 133 151 144 132 133 132 132 125 119 112
37 30 27 25 29 26 23 13 2 0 352 1 83 92 95 93 188 176 202 244 181 155 146 140 164 158 150 151 146 148 147 143 128
33 31 24 25 26 24 23 16 16 5 349 347 351 0 14 342 286 264 239 227 205 179 171 169 179 178 167 166 155 161 164 152 140
28 27 26 25 23 22 20 18 12 7 8 351 346 346 316 273 267 276 241 235 225 198 193 191 193 196 185 176 170 164 164 161 161
30 25 24 21 19 16 16 15 12 5 353 348 346 334 320 287 276 264 266 246 240 227 206 200 201 206 193 190 184 183 161 165 168
23 19 17 15 15 14 8 9 10 356 354 346 338 328 314 274 264 271 264 265 258 250 223 206 199 208 217 204 193 190 190 169 164
23 21 14 15 10 10 8 3 356 356 354 345 340 336 325 309 265 248 259 262 266 257 240 228 212 206 208 210 206 197 193 184 178
24 21 20 16 8 9 4 0 356 352 349 347 343 336 327 321 297 267 247 259 259 259 248 229 226 216 205 205 203 203 202 195 188
26 21 20 15 10 7 3 357 353 348 344 342 340 331 325 316 308 289 265 255 261 258 253 240 227 222 211 208 207 204 206 204 195
30 27 21 11 7 7 2 2 359 352 348 341 332 324 316 310 303 295 284 270 261 259 259 244 232 229 222 219 213 210 207 210 206
28 26 19 6 12 12 4 3 359 353 352 335 324 318 306 300 293 291 280 272 264 261 251 249 246 230 228 226 221 216 210 208 208
27 25 16 7 14 12 4 7 3 349 347 328 318 312 306 303 304 293 287 281 273 254 256 242 238 239 228 235 229 221 214 212 212
25 21 17 13 18 16 9 6 358 352 341 321 313 305 293 288 299 328 318 289 291 288 261 260 247 235 241 231 231 227 222 216 213
35 22 14 12 16 11 8 358 360 359 351 334 329 287 299 21 351 342 0 3 348 312 283 270 263 256 237 241 230 227 227 219 214
28 25 21 16 8 14 6 13 357 338 4 343 302 340 330 358 332 347 341 358 354 347 352 339 302 253 251 236 242 230 225 225 219
13 11 9 7 9 14 356 18 11 353 347 347 17 343 332 334 325 334 353 335 348 336 340 334 339 337 293 257 245 242 232 225 226
6 5 0 352 356 0 355 6 1 350 350 337 22 295 299 316 315 333 320 352 331 336 328 343 330 324 313 311 255 239 235 231 223
350 349 343 341 352 341 339 341 342 332 326 327 323 313 310 266 289 309 320 314 324 314 336 320 306 320 321 307 316 251 232 237 234